Terminal Aerodrome Forecast
Issued by NWS Atlanta, GA

Home | Current Version | Previous Version | Text Only | Print | Product List | Glossary On
Versions: 1 2 3 4 5 6 7 8 9 10 11 12 13 14 15 16 17 18 19 20 21 22 23 24 25 26 27 28 29 30 31 32 33 34 35 36 37 38
000
FTUS42 KFFC 311538 AAB
TAFATL
TAF AMD
KATL 311538Z 3116/0118 16004KT P6SM BKN150
     FM311800 20004KT P6SM BKN150
     FM010000 15003KT P6SM OVC150
     FM011000 14003KT P6SM SCT025 OVC150
     FM011300 14008KT P6SM OVC025=

USA.gov is the U.S. government's official web portal to all federal, state and local government web resources and services.